Weather History for Minot AFB, ND

Change the Weather History Date:

Friday, February 21, 2014

  Actual Average Record
Temperature  
Mean Temperature 1 °F -  
Max Temperature 10 °F 24 °F 51 °F (2002)
Min Temperature -8 °F 8 °F -14 °F (2011)
Degree Days  
Heating Degree Days 64    
Moisture  
Dew Point -7 °F    
Average Humidity 72    
Maximum Humidity 79    
Minimum Humidity 62    
Precipitation  
Precipitation 0.00 in - - ()
Snow  
Snow 0.00 in - - ()
Snow Depth 1.00 in    
Sea Level Pressure  
Sea Level Pressure 29.94 in    
Wind  
Wind Speed 12 mph (NW)    
Max Wind Speed 21 mph    
Max Gust Speed -    
Visibility 10 miles    
Events      
Averages and records for this station are not official NWS values.
T = Trace of Precipitation, MM = Missing Value Source: NWS Daily Summary

Daily Weather History Graph

Daily Weather History Graph

Search for Another Location

Airport:

Trip Planner

Search our weather history database for the weather conditions in past years. The results will help you decide how hot, cold, wet, or windy it might be!

Date:

Astronomy

Feb. 21, 2014 Rise Set
Actual Time 7:41 AM CST 6:16 PM CST
Civil Twilight 7:10 AM CST 6:48 PM CST
Nautical Twilight 6:33 AM CST 7:25 PM CST
Astronomical Twilight 5:57 AM CST 8:01 PM CST
Moon 12:42 AM CST (2/21) 10:35 AM CST (2/21)
Length of Visible Light 11h 38m
Length of Day
10h 35m
Waning Gibbous, 60% of the Moon is Illuminated
Feb 21
Waning Gibbous
Feb 22
Last Quarter
Mar 1
New
Mar 8
First Quarter
Mar 16
Full

Hourly Weather History & Observations

Time (CST) Temp. Windchill Dew Point Humidity Pressure Visibility Wind Dir Wind Speed Gust Speed Precip Events Conditions
12:58 AM -5.6 °F -21.0 °F -10.7 °F 79% 29.88 in 10.0 mi NNW 8.1 mph - N/A   Clear
1:58 AM -7.4 °F -23.2 °F -12.6 °F 78% 29.89 in 10.0 mi NW 8.1 mph - N/A   Clear
2:58 AM -6.5 °F -23.3 °F -11.7 °F 78% 29.87 in 10.0 mi NW 9.2 mph - N/A   Clear
3:58 AM -6.2 °F -23.9 °F -11.7 °F 77% 29.86 in 10.0 mi NNW 10.4 mph - N/A   Clear
4:58 AM -7.4 °F -24.4 °F -12.8 °F 77% 29.89 in 10.0 mi WNW 9.2 mph - N/A   Clear
5:58 AM -7.6 °F -25.7 °F -13.4 °F 76% 29.91 in 10.0 mi WNW 10.4 mph - N/A   Clear
6:58 AM -8.0 °F -26.1 °F -13.7 °F 76% 29.91 in 10.0 mi WNW 10.4 mph - N/A   Clear
7:58 AM -8.5 °F -25.7 °F -14.1 °F 77% 29.93 in 10.0 mi WNW 9.2 mph - N/A   Clear
8:58 AM -4.5 °F -24.4 °F -11.0 °F 74% 29.94 in 10.0 mi WNW 13.8 mph - N/A   Clear
9:58 AM -0.6 °F -18.6 °F -8.1 °F 70% 29.92 in 10.0 mi NNW 12.7 mph - N/A   Clear
10:58 AM 2.8 °F -14.3 °F -5.1 °F 70% 29.92 in 10.0 mi NW 12.7 mph - N/A   Clear
11:58 AM 5.0 °F -14.2 °F -3.5 °F 68% 29.92 in 10.0 mi WNW 17.3 mph - N/A   Clear
12:58 PM 7.2 °F -10.8 °F -2.0 °F 66% 29.92 in 10.0 mi NW 16.1 mph - N/A   Clear
1:58 PM 9.1 °F -9.3 °F -1.1 °F 63% 29.92 in 10.0 mi NW 18.4 mph - N/A   Clear
2:58 PM 9.9 °F -7.9 °F -0.9 °F 62% 29.92 in 10.0 mi NW 17.3 mph - N/A   Clear
3:58 PM 10.2 °F -7.9 °F 0.3 °F 64% 29.93 in 10.0 mi NW 18.4 mph - N/A   Clear
4:58 PM 9.0 °F -10.0 °F 0.1 °F 67% 29.94 in 10.0 mi NW 19.6 mph - N/A   Clear
5:58 PM 6.4 °F -12.3 °F -1.7 °F 69% 29.96 in 10.0 mi NW 17.3 mph - N/A   Clear
6:58 PM 3.9 °F -15.0 °F -3.6 °F 71% 29.98 in 10.0 mi NW 16.1 mph - N/A   Clear
7:58 PM 1.8 °F -17.8 °F -5.1 °F 73% 30.01 in 10.0 mi NW 16.1 mph - N/A   Clear
8:58 PM 0.3 °F -19.6 °F -6.0 °F 75% 30.01 in 10.0 mi WNW 16.1 mph - N/A   Clear
9:58 PM 0.1 °F -20.5 °F -6.3 °F 74% 30.01 in 10.0 mi NW 17.3 mph - N/A   Clear
10:58 PM -0.4 °F -20.5 °F -6.9 °F 74% 30.03 in 10.0 mi WNW 16.1 mph - N/A   Clear
11:58 PM -0.8 °F -23.3 °F -7.1 °F 75% 30.03 in 10.0 mi NW 20.7 mph - N/A   Clear